Location: Arcones
(41.1182°N, 3.7238°W)
Time: 20:30:20
(UTC+00:00)

YAOGAN 1 - Pass Details

Date: 15 March 2026
Orbit: 604 x 606 km, 97.8° (Epoch: 21 April)

Event Time Altitude Azimuth Distance (km) Brightness Sun altitude
Rises 19:28:27 0° 195° (SSW) 2,848 6.0 -13.4°
Reaches altitude 10° 19:30:55 10° 208° (SSW) 1,950 5.4 -13.8°
Maximum altitude 19:34:26 25° 265° (W) 1,226 5.0 -14.5°
Drops below altitude 10° 19:37:59 10° 321° (NW) 1,963 5.9 -15.2°
Sets 19:40:30 0° 335° (NNW) 2,872 6.5 -15.6°
